Find Starlink 31341

NORAD ID: 59155 Int'l Des: 2024-044 Owner: SPXS Country: US Constellation: starlink operational
LEOCIRCULAR

現在のビュー

3D地球を読み込み中...

About Starlink 31341

Starlink 31341 (NORAD 59155) is a starlink constellation satellite (v2 mini) launched Mar 4, 2024 by SPXS of US. It operates in LEO, CIRCULAR orbit with a mass of 730.00 kg.

Starlink 31341について

説明を読み込み中...

次回通過

Passes for default location (London). Set your location on the main map for personalized predictions.

高度履歴

Loading altitude history...

軌道要素

1 59155U 24044D 26197.11605442 -.00008541 00000-0 -30091-3 0 9993
2 59155 42.9996 105.4569 0000446 276.8827 83.1974 15.27614041133167
Epoch: Jul 16, 2026 • Age: 15 hours

現在のステータス

高度 483.5 km
遠地点 / 近地点 N/A
速度 7.63 km/s
衛星直下点 -4.55°S, 86.41°E
打ち上げ日 Mar 4, 2024
運用期間 2.3 years
タイプ internet

技術仕様

分類 Payload
質量 730.00 kg
乾燥質量 700.00 kg
総質量 730.00 kg
長さ 0.30 m
直径 4.10 m
スパン 29.00 m
形状 Box + pan
製造者 SPXS
バスタイプ Starlink V2M
フェーズステータス In Orbit
所有者/国 SPXS/US

Most Searched